TimeCDT,TemperatureF,Dew PointF,Humidity,Sea Level PressureIn,VisibilityMPH,Wind Direction,Wind SpeedMPH,Gust SpeedMPH,PrecipitationIn,Events,Conditions,WindDirDegrees,DateUTC
12:53 AM,46.9,39.0,74,30.06,10.0,NW,8.1,-,N/A,,Overcast,320,2013-04-24 05:53:00
1:53 AM,45.0,37.0,74,30.07,10.0,NW,9.2,-,N/A,,Overcast,310,2013-04-24 06:53:00
2:49 AM,42.8,39.2,87,30.09,2.5,NW,6.9,-,0.07,Rain,Rain,320,2013-04-24 07:49:00
2:53 AM,42.1,39.0,89,30.11,3.0,WNW,8.1,-,0.08,Rain,Light Rain,290,2013-04-24 07:53:00
3:53 AM,41.0,39.0,93,30.10,5.0,NW,6.9,-,0.08,Rain,Light Rain,320,2013-04-24 08:53:00
4:36 AM,41.0,37.9,89,30.15,10.0,NW,9.2,-,0.00,,Overcast,310,2013-04-24 09:36:00
5:53 AM,39.9,36.0,86,30.17,10.0,NNW,10.4,-,N/A,,Overcast,340,2013-04-24 10:53:00
6:53 AM,41.0,37.0,86,30.21,10.0,NW,5.8,-,N/A,,Overcast,320,2013-04-24 11:53:00
7:53 AM,42.1,37.9,85,30.22,10.0,WNW,4.6,-,N/A,,Overcast,300,2013-04-24 12:53:00
8:53 AM,44.1,37.0,76,30.24,10.0,NNW,5.8,-,N/A,,Overcast,340,2013-04-24 13:53:00
9:53 AM,48.0,37.9,68,30.25,10.0,NW,8.1,17.3,N/A,,Overcast,310,2013-04-24 14:53:00
10:50 AM,48.2,37.4,66,30.27,10.0,North,6.9,-,N/A,,Partly Cloudy,350,2013-04-24 15:50:00
10:53 AM,48.9,37.0,64,30.27,10.0,North,9.2,-,N/A,,Partly Cloudy,360,2013-04-24 15:53:00
11:53 AM,53.1,37.0,55,30.27,10.0,North,8.1,-,N/A,,Partly Cloudy,350,2013-04-24 16:53:00
12:53 PM,55.9,37.0,49,30.25,10.0,NE,5.8,-,N/A,,Clear,40,2013-04-24 17:53:00
1:53 PM,59.0,39.0,48,30.23,10.0,NE,3.5,-,N/A,,Clear,40,2013-04-24 18:53:00
2:53 PM,61.0,37.9,42,30.22,10.0,NE,6.9,-,N/A,,Clear,40,2013-04-24 19:53:00
3:53 PM,62.1,33.1,34,30.19,10.0,NNE,8.1,-,N/A,,Clear,20,2013-04-24 20:53:00
4:53 PM,63.0,34.0,34,30.19,10.0,North,-9999.0,-,N/A,,Clear,0,2013-04-24 21:53:00
5:53 PM,63.0,36.0,37,30.19,10.0,NNE,5.8,-,N/A,,Clear,30,2013-04-24 22:53:00
6:53 PM,63.0,36.0,37,30.19,10.0,NNE,4.6,-,N/A,,Clear,20,2013-04-24 23:53:00
7:53 PM,57.9,37.9,47,30.21,10.0,North,3.5,-,N/A,,Clear,350,2013-04-25 00:53:00
8:53 PM,51.1,41.0,68,30.25,10.0,Calm,Calm,-,N/A,,Clear,0,2013-04-25 01:53:00
9:53 PM,50.0,39.0,66,30.28,10.0,Calm,Calm,-,N/A,,Clear,0,2013-04-25 02:53:00
10:53 PM,44.1,39.9,85,30.29,10.0,Calm,Calm,-,N/A,,Clear,0,2013-04-25 03:53:00
11:53 PM,43.0,39.9,89,30.30,10.0,Calm,Calm,-,N/A,,Clear,0,2013-04-25 04:53:00